{"data":{"norad_id":53676,"epoch":"2026-09-20T21:08:56.081760Z","epoch_age_seconds":48322,"freshness":"FRESH","line1":"1 53676U 22105AE  26263.88120465  .00000478  00000+0  37051-4 0  9998","line2":"2 53676  97.2872 137.6803 0002001  65.9144 294.2293 15.05649793222606","mean_motion":15.05649793,"eccentricity":0.0002001,"inclination_deg":97.2872,"raan_deg":137.6803,"arg_perigee_deg":65.9144,"mean_anomaly_deg":294.2293,"bstar":3.7051e-5,"rev_number":22260,"period_min":95.639770064379,"perigee_km":548.12556646848,"apogee_km":550.89801151384,"semimajor_km":6927.6487889912,"source":"CELESTRAK","updated_at":"2026-09-21T09:00:32.977712Z"}}